OPS 4682 DEB, 38387

Orbit data source: Space-Track

OPS 4682 DEB, 38387 is space debris in LEO originally from a launch on Sat, 03 Apr 1965 UTC launched from the Air Force Western Test Range (AFWTR). Debris objects in space refer to the collection of defunct objects orbiting the Earth. Examples of debris include non-operational satellites, rocket bodies, and fragments generated from explosions, collisions, or faulty payload assembly.

Loading next visibility...
Identifier
38387, 1965-027CQ
Orbit
LEO
Country
Flag of USUS
Related business
Manufacturer
Unknown
Mission
Spacecraft
Bus & Motor
Unknown
Mass
Unknown
Launch date (UTC)
1965-04-03 (61 years ago)
Launch vehicle
Unknown
Launch site
Air Force Western Test Range (AFWTR)
Object type
Payload
Rocket body
Debris
Shape & HBR
Unknown shape, 0.1 m
Radar Cross Section
Small (<0.1 m²)

Expand to show TLE details & history
Last TLE update: 17 hours ago

TLE from 17 hours ago
0 OPS 4682 DEB
1 38387U 65027CQ  26263.02371501 -.00000120  00000-0 -44300-3 0  9996
2 38387  90.2517   7.4992 0024409 209.7574 150.2159 12.96469874616135
Epoch: 2026-09-20T00:34Z
TLE epoch observation values (Epoch: 2026-09-20T00:34:08.976Z)
Latitude
-0.00006°
Longitude
0.03796°
Altitude
1,295.057 km
Speed
7.201 km/s
True Right ascension
00h 29m 59s
True Declination
0° 00' 00"
Sunlit
Object was in full shadow at epoch
Visualization orbit readout
Latitude
Unknown
Longitude
Unknown
Altitude
Unknown
Speed
Unknown
Apparent Right ascension
Unknown
Apparent Declination
Unknown
Sunlit
N/A
Visualization observer readout
Local Sidereal Time
10:57:30
Azimuth
Unknown
Elevation
Unknown
Doppler factor
Unknown
Orbital elements
Apogee altitude
1,291.757 km
Perigee altitude
1,254.406 km
Semi-major axis
7,651.218 km
Eccentricity
0.00244
Inclination
90.2517°
RAAN
7.4992°
Arg. of periapsis
209.7574°
True anomaly
150.35447°
Mean anomaly
150.2159°
Eccentric anomaly
150.28522°
Mean motion
3.243 °/min
Orbital period
111.01 mins
BSTAR
-0.000443
Loading maneuver chart data...
Computing Atmospheric mass density...
Loading historical data...
Loading historical data...
Loading historical data...
Loading historical data...
Loading historical data...
Loading historical data...
Loading historical data...

Documentation

Showing up to 5 results
|